Tracking 29892 objects as of 21-Nov-2024
HD Live streaming from Space Station
objects crossing your sky now

THORAD DELTA 1 DEB

Track THORAD DELTA 1 DEB now!
10-day predictions


NORAD ID: 8437
Int'l Code: 1974-089CN
Perigee: 1,402.9 km
Apogee: 1,471.6 km
Inclination: 101.9 °
Period: 114.4 minutes
Semi major axis: 7808 km
RCS: 0.058 m2 (small)
Launch date: November 15, 1974
Source: United States (US)
Launch site: AIR FORCE WESTERN TEST RANGE (AFWTR)

Note: This is SATELLITE DEBRIS
Your satellite tracking list
Your tracking list is empty




NASA's NSSDC Master Catalog

Two Line Element Set (TLE):
1 08437U 74089CN  24324.46497161  .00000026  00000-0  42219-3 0  9992
2 08437 101.8804 309.3245 0044028 154.7544   0.5769 12.58264065296250
Source of the keplerian elements: AFSPC